| time (UTC) | temp F | wind direction | speed knots | gust knots | rain 1hr in | rain 24hr in | rain mn in | humidity % | barometer mb |
| 20260902024257 | 72 | 0.0 | 0.0 | 0.00 | 0.00 | 0.00 | 79 | 1017.9 | |
| 20260902023253 | 71 | 315 | 0.9 | 1.7 | 0.00 | 0.00 | 0.00 | 80 | 1017.6 |
| 20260902022250 | 71 | 315 | 0.9 | 1.7 | 0.00 | 0.00 | 0.00 | 79 | 1017.8 |
| 20260902021301 | 72 | 315 | 0.9 | 1.7 | 0.00 | 0.00 | 0.00 | 78 | 1017.4 |
| 20260902020239 | 72 | 315 | 0.9 | 1.7 | 0.00 | 0.00 | 0.00 | 78 | 1017.7 |
| 20260902015233 | 72 | 315 | 0.9 | 1.7 | 0.00 | 0.00 | 0.00 | 78 | 1017.5 |
| 20260902014229 | 72 | 315 | 1.7 | 2.6 | 0.00 | 0.00 | 0.00 | 78 | 1017.8 |
| 20260902013226 | 73 | 315 | 2.6 | 3.5 | 0.00 | 0.00 | 0.00 | 77 | 1017.6 |
| 20260902012257 | 73 | 337 | 0.9 | 1.7 | 0.00 | 0.00 | 0.00 | 76 | 1017.8 |
| 20260902011213 | 73 | 315 | 1.7 | 2.6 | 0.00 | 0.00 | 0.00 | 77 | 1017.7 |
| 20260902010203 | 72 | 315 | 1.7 | 2.6 | 0.00 | 0.00 | 0.00 | 77 | 1017.8 |
| 20260902005200 | 73 | 315 | 1.7 | 2.6 | 0.00 | 0.00 | 0.00 | 77 | 1017.7 |
| 20260902004156 | 73 | 315 | 0.9 | 1.7 | 0.00 | 0.00 | 0.00 | 77 | 1018.1 |
| 20260902003152 | 73 | 315 | 1.7 | 2.6 | 0.00 | 0.00 | 0.00 | 77 | 1017.8 |
| 20260902002149 | 73 | 315 | 0.9 | 1.7 | 0.00 | 0.00 | 0.00 | 77 | 1017.8 |
| 20260902001137 | 73 | 315 | 0.0 | 1.7 | 0.00 | 0.00 | 0.00 | 78 | 1017.8 |
| 20260902000136 | 73 | 315 | 0.0 | 1.7 | 0.00 | 0.00 | 0.00 | 78 | 1017.8 |
| 20260901235130 | 73 | 315 | 0.9 | 1.7 | 0.00 | 0.00 | 0.00 | 76 | 1017.7 |
| 20260901234127 | 73 | 315 | 0.9 | 2.6 | 0.00 | 0.00 | 0.00 | 76 | 1018.1 |
| 20260901233124 | 74 | 315 | 0.9 | 3.5 | 0.00 | 0.00 | 0.00 | 76 | 1017.7 |
| 20260901232116 | 74 | 0.0 | 0.0 | 0.00 | 0.00 | 0.00 | 75 | 1017.5 | |
| 20260901231111 | 74 | 0.0 | 0.0 | 0.00 | 0.00 | 0.00 | 76 | 1017.8 | |
| 20260901230107 | 74 | 337 | 0.0 | 1.7 | 0.00 | 0.00 | 0.00 | 76 | 1017.7 |
| 20260901225104 | 74 | 315 | 0.9 | 1.7 | 0.00 | 0.00 | 0.00 | 76 | 1018.2 |
| 20260901224100 | 74 | 315 | 0.0 | 1.7 | 0.00 | 0.00 | 0.00 | 76 | 1018.1 |
| 20260901222311 | 75 | 315 | 1.7 | 2.6 | 0.00 | 0.00 | 0.00 | 74 | 1017.6 |
| 20260901221309 | 74 | 315 | 1.7 | 2.6 | 0.00 | 0.00 | 0.00 | 75 | 1017.6 |
| 20260901220324 | 74 | 315 | 1.7 | 2.6 | 0.00 | 0.00 | 0.00 | 75 | 1017.4 |
| 20260901215300 | 74 | 315 | 0.9 | 2.6 | 0.00 | 0.00 | 0.00 | 75 | 1017.6 |
| 20260901212223 | 75 | 337 | 1.7 | 2.6 | 0.00 | 0.00 | 0.00 | 73 | 1017.6 |
| 20260901205558 | 75 | 315 | 1.7 | 2.6 | 0.00 | 0.00 | 0.00 | 72 | 1017.6 |
| 20260901202731 | 76 | 315 | 0.9 | 1.7 | 0.00 | 0.00 | 0.00 | 71 | 1017.4 |
| 20260901201730 | 77 | 315 | 0.9 | 1.7 | 0.00 | 0.00 | 0.00 | 70 | 1017.4 |
| 20260901200744 | 77 | 315 | 0.9 | 1.7 | 0.00 | 0.00 | 0.00 | 70 | 1017.4 |
| 20260901195305 | 77 | 315 | 0.9 | 2.6 | 0.00 | 0.00 | 0.00 | 70 | 1017.2 |
| 20260901194251 | 77 | 315 | 1.7 | 2.6 | 0.00 | 0.00 | 0.00 | 69 | 1017.1 |
| 20260901193248 | 78 | 0.0 | 0.0 | 0.00 | 0.00 | 0.00 | 68 | 1017.3 | |
| 20260901192306 | 78 | 315 | 0.9 | 1.7 | 0.00 | 0.00 | 0.00 | 68 | 1017.1 |
| 20260901191238 | 78 | 315 | 0.9 | 1.7 | 0.00 | 0.00 | 0.00 | 68 | 1017.0 |
| 20260901190235 | 78 | 315 | 0.9 | 1.7 | 0.00 | 0.00 | 0.00 | 67 | 1016.9 |
| 20260901185247 | 79 | 0.0 | 0.0 | 0.00 | 0.00 | 0.00 | 66 | 1016.6 | |
| 20260901184225 | 79 | 0.0 | 0.0 | 0.00 | 0.00 | 0.00 | 66 | 1016.7 | |
| 20260901183220 | 79 | 0.0 | 0.0 | 0.00 | 0.00 | 0.00 | 65 | 1016.7 | |
| 20260901182216 | 80 | 0.0 | 0.0 | 0.00 | 0.00 | 0.00 | 65 | 1016.6 | |
| 20260901181212 | 81 | 0.0 | 0.0 | 0.00 | 0.00 | 0.00 | 63 | 1016.5 | |
| 20260901175553 | 82 | 0.0 | 0.9 | 0.00 | 0.00 | 0.00 | 59 | 1016.4 | |
| 20260901174549 | 82 | 315 | 0.9 | 1.7 | 0.00 | 0.00 | 0.00 | 58 | 1016.5 |
| 20260901173544 | 82 | 315 | 1.7 | 2.6 | 0.00 | 0.00 | 0.00 | 58 | 1016.2 |
| 20260901172541 | 83 | 315 | 1.7 | 2.6 | 0.00 | 0.00 | 0.00 | 57 | 1016.2 |
| 20260901171557 | 83 | 315 | 1.7 | 2.6 | 0.00 | 0.00 | 0.00 | 57 | 1016.3 |
| 20260901170535 | 83 | 315 | 1.7 | 3.5 | 0.00 | 0.00 | 0.00 | 56 | 1016.4 |
| 20260901165531 | 83 | 0 | 0.0 | 2.6 | 0.00 | 0.00 | 0.00 | 56 | 1016.4 |
| 20260901164528 | 84 | 315 | 0.0 | 0.9 | 0.00 | 0.00 | 0.00 | 56 | 1016.2 |
| 20260901163525 | 84 | 0.0 | 0.9 | 0.00 | 0.00 | 0.00 | 56 | 1016.4 | |
| 20260901161645 | 84 | 112 | 1.7 | 3.5 | 0.00 | 0.00 | 0.00 | 54 | 1016.6 |
| 20260901160100 | 84 | 337 | 1.7 | 3.5 | 0.00 | 0.00 | 0.00 | 55 | 1016.3 |
| 20260901154107 | 85 | 112 | 0.9 | 1.7 | 0.00 | 0.00 | 0.00 | 54 | 1016.3 |
| 20260901153106 | 84 | 315 | 0.9 | 1.7 | 0.00 | 0.00 | 0.00 | 55 | 1016.2 |
| 20260901152101 | 84 | 112 | 0.0 | 0.9 | 0.00 | 0.00 | 0.00 | 55 | 1016.5 |
| 20260901150746 | 84 | 135 | 2.6 | 3.5 | 0.00 | 0.00 | 0.00 | 55 | 1016.5 |
| 20260901145757 | 84 | 315 | 2.6 | 5.2 | 0.00 | 0.00 | 0.00 | 54 | 1016.7 |
| 20260901144715 | 85 | 45 | 0.9 | 1.7 | 0.00 | 0.00 | 0.00 | 54 | 1016.7 |
| 20260901143707 | 84 | 315 | 1.7 | 5.2 | 0.00 | 0.00 | 0.00 | 56 | 1016.7 |
| 20260901142725 | 84 | 315 | 4.3 | 9.6 | 0.00 | 0.00 | 0.00 | 57 | 1016.7 |
| 20260901141701 | 84 | 315 | 3.5 | 5.2 | 0.00 | 0.00 | 0.00 | 57 | 1016.8 |
| 20260901140202 | 85 | 0 | 1.7 | 3.5 | 0.00 | 0.00 | 0.00 | 55 | 1017.0 |
| 20260901135153 | 84 | 135 | 0.0 | 1.7 | 0.00 | 0.00 | 0.00 | 54 | 1017.0 |
| 20260901134150 | 83 | 315 | 3.5 | 7.0 | 0.00 | 0.00 | 0.00 | 55 | 1016.9 |
| 20260901133146 | 84 | 337 | 1.7 | 5.2 | 0.00 | 0.00 | 0.00 | 56 | 1017.0 |
| 20260901132143 | 84 | 22 | 2.6 | 7.0 | 0.00 | 0.00 | 0.00 | 55 | 1017.2 |
| 20260901131139 | 83 | 337 | 1.7 | 3.5 | 0.00 | 0.00 | 0.00 | 56 | 1017.2 |
| 20260901130136 | 83 | 202 | 1.7 | 5.2 | 0.00 | 0.00 | 0.00 | 57 | 1017.4 |
| 20260901125132 | 83 | 315 | 0.9 | 5.2 | 0.00 | 0.00 | 0.00 | 55 | 1017.5 |
| 20260901124129 | 83 | 0.0 | 0.0 | 0.00 | 0.00 | 0.00 | 57 | 1017.4 | |
| 20260901123125 | 84 | 315 | 0.9 | 2.6 | 0.00 | 0.00 | 0.00 | 57 | 1017.6 |
| 20260901121152 | 84 | 112 | 0.0 | 2.6 | 0.00 | 0.00 | 0.00 | 53 | 1017.8 |
| 20260901120149 | 82 | 0.0 | 0.9 | 0.00 | 0.00 | 0.00 | 58 | 1017.6 | |
| 20260901115200 | 84 | 90 | 2.6 | 5.2 | 0.00 | 0.00 | 0.00 | 56 | 1017.7 |
| 20260901114135 | 83 | 112 | 3.5 | 7.0 | 0.00 | 0.00 | 0.00 | 56 | 1017.9 |